Mardi 16 août 2022   -   semaine 33                    on fête: Armel                    soleil  (-2 mn) lever du soleil 06:45:00 coucher du soleil 20:55:00                    lune Lune gibbeuse décroissante
Sélection

Sélection d'un SYNOP

   Synop:       

  Période à consulter:

Actuelle
Archive     

Relevé

Dernier relevé du SYNOP pour la période choisie

Conditions météo à la station de Vichy/Charmeil (4610N 00324E)    altitude 251m

Date du relevé16/08/2022 à 08:00
Base des nuages2000 à 2500m
Visibilité20km
Vent9 km/h S
Température16.4 C
Température maxi / 12h25.6 C
Température mini / 12h13.7 C
Humidité89.1 %
Point de rosée14.6 C
Pression absolue980.3 hPa
Pression relative1009.5 hPa
Variation pression0.0 hPa en baisse puis en hausse
Précipitations0 mm les 12 dernières heures
Neige au sol000 cm (relevé du 16/08/2022 08:00)
Temps présentAucune formation de nuages observée ou observable.

24h

Historique de la période choisie

Certaines stations ne diffusent pas en continu, d'où l'absence possible de données à certaines heures. Le tableau ci-dessous récapitule l'historique des relevés de la station de Vichy/Charmeil.

Date - Heure Base des nuages Visibilité Nébulosité Vent - Secteur Température Humidité Point rosée Pression / Géopotentiel Précipitations Temps
16/08 08:00 2000 à 2500m 20km 9 km/h S 16.4 C 89.1 % 14.6 C 1009.5 hPa 0 mm/12h
16/08 07:00 1500 à 2000m 18km 7/8 2 km/h S 13.8 C 94.3 % 12.9 C 1009.8 hPa
16/08 06:00 2000 à 2500m 19km 2/8 4 km/h SSO 14.5 C 93.1 % 13.4 C 1009.6 hPa
16/08 05:00 2000 à 2500m 20km 3/8 4 km/h SSO 15.4 C 93.2 % 14.3 C 1009.6 hPa
16/08 04:00 2000 à 2500m 16km 5/8 2 km/h SO 14.6 C 95.0 % 13.8 C 1010.0 hPa
16/08 03:00 plus de 2500m 12km 2 km/h ONO 14.1 C 94.9 % 13.3 C 1010.1 hPa
16/08 02:00 plus de 2500m 18km 0 km/h N 15.0 C 93.1 % 13.9 C 1010.0 hPa 0 mm/6h
16/08 01:00 plus de 2500m 20km 2 km/h ONO 16.0 C 93.8 % 15.0 C 1010.0 hPa
16/08 00:00 plus de 2500m 20km 0 km/h N 17.0 C 85.8 % 14.6 C 1009.9 hPa
15/08 23:00 2000 à 2500m 20km 7/8 2 km/h SE 19.0 C 79.1 % 15.3 C 1009.6 hPa
15/08 22:00 2000 à 2500m 20km 1/8 2 km/h ONO 19.6 C 72.0 % 14.4 C 1009.0 hPa
15/08 21:00 plus de 2500m 20km 3/8 0 km/h N 23.3 C 54.8 % 13.7 C 1008.0 hPa
15/08 20:00 1500 à 2000m 20km 8/8 2 km/h ONO 25.6 C 46.0 % 13.1 C 1007.3 hPa 0.2 mm/12h
15/08 19:00 2000 à 2500m 20km 3/8 2 km/h OSO 25.7 C 45.1 % 12.9 C 1007.1 hPa
15/08 18:00 1500 à 2000m 20km 4/8 4 km/h ONO 26.9 C 40.1 % 12.2 C 1007.1 hPa
15/08 17:00 plus de 2500m 20km 4/8 6 km/h O 27.4 C 40.0 % 12.6 C 1007.3 hPa
15/08 16:00 plus de 2500m 20km 3/8 6 km/h O 27.3 C 43.0 % 13.6 C 1007.5 hPa
15/08 15:00 1500 à 2000m 20km 8/8 6 km/h ONO 25.3 C 45.0 % 12.5 C 1008.1 hPa
15/08 14:00 1000 à 1500m 20km 7/8 4 km/h O 25.2 C 49.0 % 13.7 C 1007.9 hPa 0.2 mm/6h
15/08 13:00 1000 à 1500m 20km 8/8 6 km/h O 24.4 C 51.0 % 13.6 C 1008.2 hPa
15/08 12:00 1000 à 1500m 20km 8/8 6 km/h S 22.2 C 62.1 % 14.6 C 1008.6 hPa
15/08 11:00 1000 à 1500m 20km 6/8 9 km/h SSE 21.8 C 64.1 % 14.7 C 1008.4 hPa
15/08 10:00 1000 à 1500m 20km 8/8 6 km/h S 18.9 C 82.2 % 15.8 C 1008.8 hPa
15/08 09:00 1000 à 1500m 14km 8/8 2 km/h SE 17.9 C 89.8 % 16.2 C 1008.7 hPa
15/08 08:00 plus de 2500m 20km 8/8 4 km/h S 17.5 C 89.2 % 15.7 C 1008.4 hPa traces/12h

Source: ogimet